FW6724 Weather Reports


Display with metric or nautical units.
time (UTC)temp
F
wind
direction
speed
MPH
gust
MPH
rain 1hr
in
rain 24hr
in
rain mn
in
humidity
%
barometer
mb
20260902184547 84 101 1.0 7.0 0.00 0.00 0.00 54 1019.6
20260902183045 85 141 1.0 8.0 0.00 0.00 0.00 53 1019.7
20260902181545 85 110 3.0 7.0 0.00 0.00 0.00 53 1019.6
20260902180101 86 130 3.0 7.0 0.00 0.00 0.00 51 1019.4
20260902174544 87 124 3.0 8.0 0.00 0.00 0.00 50 1019.3
20260902173045 88 125 4.0 8.0 0.00 0.00 0.00 49 1019.3
20260902171549 88 135 3.0 9.0 0.00 0.00 0.00 47 1019.3
20260902170043 89 79 4.0 9.0 0.00 0.00 0.00 43 1019.4
20260902164541 89 126 4.0 10.0 0.00 0.00 0.00 41 1019.6
20260902163044 89 134 4.0 9.0 0.00 0.00 0.00 42 1019.5
20260902161545 89 91 5.0 10.0 0.00 0.00 0.00 40 1019.5
20260902160046 90 55 5.0 10.0 0.00 0.00 0.00 40 1019.6
20260902154541 90 100 5.0 10.0 0.00 0.00 0.00 42 1019.8
20260902153044 91 126 5.0 10.0 0.00 0.00 0.00 42 1019.7
20260902151549 90 86 6.0 11.0 0.00 0.00 0.00 39 1019.7
20260902150042 90 115 6.0 12.0 0.00 0.00 0.00 39 1020.0
20260902144541 91 107 5.0 12.0 0.00 0.00 0.00 35 1020.1
20260902143042 91 113 5.0 12.0 0.00 0.00 0.00 36 1020.2
20260902141543 91 138 7.0 13.0 0.00 0.00 0.00 37 1020.3
20260902140039 90 86 7.0 13.0 0.00 0.00 0.00 37 1020.5
20260902134542 90 70 8.0 14.0 0.00 0.00 0.00 38 1020.5
20260902133046 89 123 7.0 15.0 0.00 0.00 0.00 40 1020.7
20260902131544 90 155 5.0 14.0 0.00 0.00 0.00 42 1020.7
20260902130042 89 133 6.0 14.0 0.00 0.00 0.00 41 1020.8
20260902124542 89 140 8.0 17.0 0.00 0.00 0.00 44 1020.9
20260902123040 89 128 7.0 13.0 0.00 0.00 0.00 44 1021.0
20260902121547 89 118 5.0 11.0 0.00 0.00 0.00 46 1020.9
20260902120042 89 130 4.0 13.0 0.00 0.00 0.00 45 1020.9
20260902114544 89 117 5.0 12.0 0.00 0.00 0.00 45 1021.1
20260902113046 88 69 5.0 11.0 0.00 0.00 0.00 47 1021.2
20260902111544 88 148 3.0 11.0 0.00 0.00 0.00 50 1021.3
20260902110043 87 93 4.0 11.0 0.00 0.00 0.00 51 1021.3
20260902104603 86 138 5.0 12.0 0.00 0.00 0.00 52 1021.3
20260902103046 86 108 6.0 12.0 0.00 0.00 0.00 53 1021.3
20260902101542 86 78 5.0 11.0 0.00 0.00 0.00 52 1021.2
20260902100101 85 105 5.0 11.0 0.00 0.00 0.00 55 1021.4
20260902094541 85 111 4.0 10.0 0.00 0.00 0.00 55 1021.5
20260902093048 84 46 3.0 11.0 0.00 0.00 0.00 55 1021.4
20260902091543 84 42 3.0 10.0 0.00 0.00 0.00 58 1021.4
20260902090042 83 50 3.0 8.0 0.00 0.00 0.00 58 1021.5
20260902084542 82 77 1.0 5.0 0.00 0.00 0.00 59 1021.4
20260902083048 80 98 1.0 6.0 0.00 0.00 0.00 61 1021.3
20260902081605 79 75 2.0 4.0 0.00 0.00 0.00 63 1021.0
20260902080054 78 0 0.0 4.0 0.00 0.00 0.00 65 1021.1
20260902074544 77 85 2.0 6.0 0.00 0.00 0.00 66 1021.3
20260902073038 76 96 1.0 3.0 0.00 0.00 0.00 67 1021.1
20260902071545 75 0 0.0 0.0 0.00 0.00 0.00 68 1021.1
20260902070044 74 0 0.0 3.0 0.00 0.00 0.00 68 1020.9
20260902064542 74 0 0.0 3.0 0.00 0.00 0.00 68 1020.4
20260902063101 74 37 2.0 5.0 0.00 0.00 0.00 68 1020.1
20260902061551 74 152 0.0 5.0 0.00 0.00 0.00 67 1020.0
20260902060059 74 0 0.0 2.0 0.00 0.00 0.00 67 1019.5
20260902054544 74 0 0.0 3.0 0.00 0.00 0.00 66 1019.1
20260902053043 75 38 1.0 5.0 0.00 0.00 0.00 65 1018.9
20260902051546 76 82 2.0 4.0 0.00 0.00 0.00 64 1018.9
20260902050043 77 105 2.0 9.0 0.00 0.00 0.00 63 1018.7
20260902044545 76 280 4.0 9.0 0.00 0.00 0.00 64 1018.6
20260902043043 76 288 4.0 11.0 0.00 0.00 0.00 66 1018.7
20260902041543 75 293 7.0 12.0 0.00 0.00 0.00 68 1018.8
20260902040043 75 273 4.0 10.0 0.00 0.00 0.00 68 1018.9
20260902034546 75 296 5.0 10.0 0.00 0.00 0.00 67 1019.0
20260902033040 75 294 4.0 8.0 0.00 0.00 0.00 67 1018.9
20260902031542 75 0 2.0 5.0 0.00 0.00 0.00 66 1019.1
20260902030041 76 0 0.0 1.0 0.00 0.00 0.00 67 1019.2
20260902024541 77 360 2.0 4.0 0.00 0.00 0.00 67 1019.2
20260902023040 77 0 0.0 2.0 0.00 0.00 0.00 67 1019.1
20260902021546 77 0 0.0 3.0 0.00 0.00 0.00 67 1019.0
20260902020055 76 279 3.0 5.0 0.00 0.00 0.00 67 1019.2
20260902014548 77 293 2.0 5.0 0.00 0.00 0.00 66 1019.3
20260902013041 77 302 2.0 5.0 0.00 0.00 0.00 66 1019.4
20260902011541 78 296 2.0 5.0 0.00 0.00 0.00 66 1019.4
20260902010037 78 290 3.0 6.0 0.00 0.00 0.00 66 1019.4
20260902004539 78 266 1.0 4.0 0.00 0.00 0.00 66 1019.5
20260902003046 79 262 1.0 3.0 0.00 0.00 0.00 66 1019.5
20260902001541 78 0 0.0 4.0 0.00 0.00 0.00 66 1019.8
20260902000042 79 0 0.0 0.0 0.00 0.00 0.00 66 1020.1
20260901234600 79 0 1.0 6.0 0.00 0.00 0.00 66 1020.2
20260901233052 79 279 3.0 6.0 0.00 0.00 0.00 66 1020.1
20260901231544 79 264 3.0 6.0 0.00 0.00 0.00 66 1020.1
20260901230048 79 0 1.0 4.0 0.00 0.00 0.00 66 1020.2
20260901224542 79 288 2.0 4.0 0.00 0.00 0.00 66 1020.2
20260901223046 79 0 0.0 0.0 0.00 0.00 0.00 66 1020.3
20260901221606 79 0 0.0 0.0 0.00 0.00 0.00 66 1020.3
20260901220039 79 0 0.0 0.0 0.00 0.00 0.00 66 1020.3
20260901214546 79 0 0.0 0.0 0.00 0.00 0.00 66 1020.2
20260901213044 79 0 0.0 0.0 0.00 0.00 0.00 66 1020.1
20260901211538 79 0 0.0 0.0 0.00 0.00 0.00 66 1020.1
20260901210047 80 0 0.0 0.0 0.00 0.00 0.00 66 1020.0
20260901204547 80 0 0.0 0.0 0.00 0.00 0.00 65 1019.9
20260901203058 80 0 0.0 3.0 0.00 0.00 0.00 65 1020.0
20260901201547 80 94 0.0 6.0 0.00 0.00 0.00 65 1019.7
20260901200038 80 0 1.0 6.0 0.00 0.00 0.00 64 1019.6
20260901194545 80 93 2.0 7.0 0.00 0.00 0.00 63 1019.3
20260901193054 81 88 2.0 8.0 0.00 0.00 0.00 62 1019.2
20260901191544 81 80 1.0 5.0 0.00 0.00 0.00 61 1019.1
20260901190045 81 101 2.0 9.0 0.00 0.00 0.00 60 1018.8